This is the latest recevied weather packets stored in our database for station/object K4CRS-13. If no packets are shown the sender has not sent any weather packets the latest 10 day(s).
| Time | Temp. | Humidity | Pressure | Rain* | Wind** | Luminosity | Snow |
|---|---|---|---|---|---|---|---|
| 1777926327 | 26.11° C | 40% | 1048.1 hPa | 0 mm | - | 644 W/m² | - |
| 1777926025 | 26.67° C | 39% | 1048.2 hPa | 0 mm | - | 655 W/m² | - |
| 1777925721 | 26.11° C | 40% | 1048.3 hPa | 0 mm | - | 668 W/m² | - |
| 1777925420 | 26.11° C | 42% | 1048.7 hPa | 0 mm | - | 671 W/m² | - |
| 1777925115 | 26.67° C | 39% | 1048.2 hPa | 0 mm | - | 687 W/m² | - |
| 1777924812 | 26.67° C | 38% | 1048.3 hPa | 0 mm | - | 696 W/m² | - |
| 1777924509 | 27.22° C | 39% | 1048.3 hPa | 0 mm | - | 715 W/m² | - |
| 1777924205 | 27.22° C | 40% | 1048.4 hPa | 0 mm | - | 726 W/m² | - |
| 1777923901 | 26.67° C | 43% | 1048.9 hPa | 0 mm | - | 732 W/m² | - |
| 1777923597 | 26.67° C | 39% | 1048.7 hPa | 0 mm | - | 739 W/m² | - |
| 1777923294 | 26.67° C | 41% | 1048.7 hPa | 0 mm | - | 751 W/m² | - |
| 1777922993 | 26.67° C | 44% | 1048.9 hPa | 0 mm | - | 771 W/m² | - |
| 1777922690 | 27.22° C | 45% | 1048.9 hPa | 0 mm | - | 768 W/m² | - |
| 1777922389 | 26.67° C | 43% | 1048.7 hPa | 0 mm | - | 766 W/m² | - |
| 1777922086 | 26.67° C | 42% | 1048.9 hPa | 0 mm | - | 779 W/m² | - |
| 1777921781 | 26.67° C | 46% | 1048.9 hPa | 0 mm | - | 789 W/m² | - |
| 1777921478 | 26.67° C | 45% | 1048.7 hPa | 0 mm | - | 789 W/m² | - |
| 1777921174 | 26.11° C | 45% | 1049 hPa | 0 mm | - | 796 W/m² | - |
| 1777920872 | 25.56° C | 44% | 1049.3 hPa | 0 mm | - | 808 W/m² | - |
| 1777920567 | 25.56° C | 44% | 1049.2 hPa | 0 mm | - | 833 W/m² | - |
| 1777920263 | 26.67° C | 43% | 1049.2 hPa | 0 mm | - | 838 W/m² | - |
| 1777919960 | 26.11° C | 47% | 1049.1 hPa | 0 mm | - | 868 W/m² | - |
| 1777919657 | 25.56° C | 49% | 1049.5 hPa | 0 mm | - | 899 W/m² | - |
| 1777919355 | 25.56° C | 47% | 1049.4 hPa | 0 mm | - | 539 W/m² | - |
| 1777919052 | 25° C | 50% | 1049.4 hPa | 0 mm | - | 878 W/m² | - |
* Rain latest hour (hover to see other rain measurements)
** Current wind speed in m/s (hover to see current wind gust speed)